Time,TemperatureF,DewpointF,PressureIn,WindDirection,WindDirectionDegrees,WindSpeedMPH,WindSpeedGustMPH,Humidity,HourlyPrecipIn,Conditions,Clouds,dailyrainin,SoftwareType,DateUTC
2013-06-03 00:09:00,66.0,63.0,29.81,South,185,3.0,13.0,89,0.00,,,0.00,weatherlink.com 1.10,2013-06-03 04:09:00,
2013-06-03 00:24:00,65.9,63.0,29.82,NW,317,3.0,13.0,89,0.00,,,0.00,weatherlink.com 1.10,2013-06-03 04:24:00,
2013-06-03 00:39:00,65.8,63.0,29.81,SW,222,6.0,10.0,89,0.00,,,0.00,weatherlink.com 1.10,2013-06-03 04:39:00,
2013-06-03 00:54:00,65.6,62.0,29.82,SSW,207,2.0,14.0,89,0.00,,,0.00,weatherlink.com 1.10,2013-06-03 04:54:00,
2013-06-03 01:10:00,65.4,63.0,29.82,WSW,244,1.0,7.0,90,0.00,,,0.00,weatherlink.com 1.10,2013-06-03 05:10:00,
2013-06-03 01:25:00,65.3,62.0,29.82,SW,227,2.0,6.0,90,0.00,,,0.00,weatherlink.com 1.10,2013-06-03 05:25:00,
2013-06-03 01:40:00,65.3,62.0,29.81,ENE,75,1.0,7.0,90,0.00,,,0.00,weatherlink.com 1.10,2013-06-03 05:40:00,
2013-06-03 01:55:00,65.4,63.0,29.81,SSE,159,3.0,6.0,90,0.00,,,0.00,weatherlink.com 1.10,2013-06-03 05:55:00,
2013-06-03 02:10:00,65.2,62.0,29.80,WSW,240,2.0,11.0,90,0.00,,,0.00,weatherlink.com 1.10,2013-06-03 06:10:00,
2013-06-03 02:25:00,65.2,62.0,29.80,SW,230,4.0,11.0,90,0.00,,,0.00,weatherlink.com 1.10,2013-06-03 06:25:00,
2013-06-03 02:40:00,64.9,62.0,29.80,SSW,212,0.0,7.0,91,0.00,,,0.00,weatherlink.com 1.10,2013-06-03 06:40:00,
2013-06-03 02:55:00,64.8,63.0,29.80,NNE,28,1.0,3.0,92,0.00,,,0.00,weatherlink.com 1.10,2013-06-03 06:55:00,
2013-06-03 03:10:00,64.7,62.0,29.79,SSE,164,1.0,4.0,91,0.00,,,0.00,weatherlink.com 1.10,2013-06-03 07:10:00,
2013-06-03 03:25:00,64.6,62.0,29.78,SSW,204,3.0,9.0,92,0.00,,,0.00,weatherlink.com 1.10,2013-06-03 07:25:00,
2013-06-03 03:40:00,64.3,62.0,29.78,WSW,246,6.0,8.0,92,0.00,,,0.00,weatherlink.com 1.10,2013-06-03 07:40:00,
2013-06-03 03:55:00,64.0,62.0,29.79,SSW,209,2.0,7.0,93,0.00,,,0.00,weatherlink.com 1.10,2013-06-03 07:55:00,
2013-06-03 04:10:00,63.7,62.0,29.78,SSW,204,2.0,7.0,94,0.00,,,0.00,weatherlink.com 1.10,2013-06-03 08:10:00,
2013-06-03 04:25:00,63.6,62.0,29.78,South,181,3.0,8.0,94,0.00,,,0.00,weatherlink.com 1.10,2013-06-03 08:25:00,
2013-06-03 04:40:00,64.0,62.0,29.78,WSW,252,7.0,10.0,94,0.00,,,0.00,weatherlink.com 1.10,2013-06-03 08:40:00,
2013-06-03 04:55:00,64.3,62.0,29.78,WSW,250,1.0,10.0,92,0.00,,,0.00,weatherlink.com 1.10,2013-06-03 08:55:00,
2013-06-03 05:10:00,64.6,62.0,29.78,SW,236,3.0,10.0,91,0.00,,,0.00,weatherlink.com 1.10,2013-06-03 09:10:00,
2013-06-03 05:25:00,64.9,62.0,29.78,SW,228,5.0,15.0,90,0.00,,,0.00,weatherlink.com 1.10,2013-06-03 09:25:00,
2013-06-03 05:40:00,64.8,62.0,29.79,WSW,237,4.0,9.0,90,0.00,,,0.00,weatherlink.com 1.10,2013-06-03 09:40:00,
2013-06-03 05:55:00,64.3,62.0,29.79,WSW,242,2.0,7.0,92,0.00,,,0.00,weatherlink.com 1.10,2013-06-03 09:55:00,
2013-06-03 06:10:00,64.3,62.0,29.80,WSW,242,0.0,6.0,92,0.00,,,0.00,weatherlink.com 1.10,2013-06-03 10:10:00,
2013-06-03 06:25:00,64.3,62.0,29.80,West,267,1.0,4.0,92,0.00,,,0.00,weatherlink.com 1.10,2013-06-03 10:25:00,
2013-06-03 06:40:00,64.5,62.0,29.80,WNW,295,0.0,2.0,92,0.00,,,0.00,weatherlink.com 1.10,2013-06-03 10:40:00,
2013-06-03 06:55:00,64.5,62.0,29.80,WNW,286,0.0,1.0,92,0.00,,,0.00,weatherlink.com 1.10,2013-06-03 10:55:00,
2013-06-03 07:10:00,64.6,62.0,29.80,WNW,286,0.0,1.0,92,0.00,,,0.00,weatherlink.com 1.10,2013-06-03 11:10:00,
2013-06-03 07:25:00,64.8,63.0,29.81,WNW,286,0.0,0.0,92,0.00,,,0.00,weatherlink.com 1.10,2013-06-03 11:25:00,
2013-06-03 07:40:00,64.9,63.0,29.80,NE,39,1.0,3.0,92,0.00,,,0.00,weatherlink.com 1.10,2013-06-03 11:40:00,
2013-06-03 07:55:00,65.2,63.0,29.81,NE,39,2.0,3.0,91,0.00,,,0.00,weatherlink.com 1.10,2013-06-03 11:55:00,
2013-06-03 08:10:00,65.6,63.0,29.81,NE,49,1.0,3.0,90,0.00,,,0.00,weatherlink.com 1.10,2013-06-03 12:10:00,
2013-06-03 08:25:00,67.7,62.0,29.81,ESE,107,1.0,4.0,83,0.00,,,0.00,weatherlink.com 1.10,2013-06-03 12:25:00,
2013-06-03 08:40:00,68.5,63.0,29.82,ENE,63,3.0,5.0,81,0.00,,,0.00,weatherlink.com 1.10,2013-06-03 12:40:00,
2013-06-03 08:55:00,68.1,61.0,29.81,NE,42,3.0,7.0,78,0.00,,,0.00,weatherlink.com 1.10,2013-06-03 12:55:00,
2013-06-03 09:10:00,68.3,60.0,29.81,WSW,254,1.0,6.0,76,0.00,,,0.00,weatherlink.com 1.10,2013-06-03 13:10:00,
2013-06-03 09:25:00,68.1,61.0,29.81,North,5,3.0,5.0,79,0.00,,,0.00,weatherlink.com 1.10,2013-06-03 13:25:00,
2013-06-03 09:40:00,67.8,60.0,29.82,North,5,0.0,2.0,75,0.00,,,0.00,weatherlink.com 1.10,2013-06-03 13:40:00,
2013-06-03 09:55:00,68.1,61.0,29.82,NNE,30,1.0,3.0,79,0.00,,,0.00,weatherlink.com 1.10,2013-06-03 13:55:00,
2013-06-03 10:10:00,68.2,60.0,29.82,WSW,251,2.0,6.0,76,0.00,,,0.00,weatherlink.com 1.10,2013-06-03 14:10:00,
2013-06-03 10:25:00,68.0,60.0,29.81,ENE,66,5.0,9.0,76,0.00,,,0.00,weatherlink.com 1.10,2013-06-03 14:25:00,
2013-06-03 10:40:00,68.1,60.0,29.82,North,350,0.0,6.0,76,0.00,,,0.00,weatherlink.com 1.10,2013-06-03 14:40:00,
2013-06-03 10:55:00,68.5,60.0,29.82,NW,310,3.0,5.0,75,0.00,,,0.00,weatherlink.com 1.10,2013-06-03 14:55:00,
2013-06-03 11:10:00,68.9,60.0,29.81,ENE,61,1.0,8.0,73,0.00,,,0.00,weatherlink.com 1.10,2013-06-03 15:10:00,
2013-06-03 11:25:00,69.3,60.0,29.82,East,101,0.0,5.0,72,0.00,,,0.00,weatherlink.com 1.10,2013-06-03 15:25:00,
2013-06-03 11:40:00,69.4,60.0,29.81,ENE,57,1.0,5.0,71,0.00,,,0.00,weatherlink.com 1.10,2013-06-03 15:40:00,
2013-06-03 11:55:00,69.9,59.0,29.81,NE,51,1.0,8.0,69,0.00,,,0.00,weatherlink.com 1.10,2013-06-03 15:55:00,
2013-06-03 12:10:00,71.3,60.0,29.81,SW,218,5.0,6.0,67,0.00,,,0.00,weatherlink.com 1.10,2013-06-03 16:10:00,
2013-06-03 12:25:00,70.7,61.0,29.82,NNE,32,2.0,6.0,71,0.00,,,0.00,weatherlink.com 1.10,2013-06-03 16:25:00,
2013-06-03 12:40:00,71.0,61.0,29.81,North,11,1.0,5.0,71,0.00,,,0.00,weatherlink.com 1.10,2013-06-03 16:40:00,
2013-06-03 12:56:00,70.9,61.0,29.81,NNE,19,0.0,6.0,70,0.00,,,0.00,weatherlink.com 1.10,2013-06-03 16:56:00,
2013-06-03 13:11:00,71.1,60.0,29.81,East,79,0.0,6.0,69,0.00,,,0.00,weatherlink.com 1.10,2013-06-03 17:11:00,
2013-06-03 13:26:00,70.9,59.0,29.80,NE,40,4.0,7.0,67,0.00,,,0.00,weatherlink.com 1.10,2013-06-03 17:26:00,
2013-06-03 13:41:00,71.8,59.0,29.80,SSE,155,1.0,8.0,64,0.00,,,0.00,weatherlink.com 1.10,2013-06-03 17:41:00,
2013-06-03 13:56:00,72.5,60.0,29.79,NNE,19,0.0,7.0,64,0.00,,,0.00,weatherlink.com 1.10,2013-06-03 17:56:00,
2013-06-03 14:11:00,72.3,60.0,29.79,South,190,1.0,5.0,66,0.00,,,0.00,weatherlink.com 1.10,2013-06-03 18:11:00,
2013-06-03 14:26:00,72.5,59.0,29.79,NNE,21,1.0,6.0,63,0.00,,,0.00,weatherlink.com 1.10,2013-06-03 18:26:00,
2013-06-03 14:41:00,72.5,60.0,29.79,NNE,30,2.0,6.0,65,0.00,,,0.00,weatherlink.com 1.10,2013-06-03 18:41:00,
2013-06-03 14:56:00,72.1,59.0,29.79,ESE,104,1.0,9.0,64,0.00,,,0.00,weatherlink.com 1.10,2013-06-03 18:56:00,
2013-06-03 15:11:00,71.7,58.0,29.79,NE,40,3.0,8.0,63,0.00,,,0.00,weatherlink.com 1.10,2013-06-03 19:11:00,
2013-06-03 15:26:00,71.9,58.0,29.80,North,355,0.0,4.0,62,0.00,,,0.00,weatherlink.com 1.10,2013-06-03 19:26:00,
2013-06-03 15:41:00,72.7,60.0,29.80,South,182,0.0,3.0,64,0.00,,,0.00,weatherlink.com 1.10,2013-06-03 19:41:00,
2013-06-03 15:56:00,74.0,59.0,29.80,East,86,2.0,7.0,60,0.00,,,0.00,weatherlink.com 1.10,2013-06-03 19:56:00,
2013-06-03 16:11:00,73.7,59.0,29.79,NE,35,0.0,5.0,61,0.00,,,0.00,weatherlink.com 1.10,2013-06-03 20:11:00,
2013-06-03 16:26:00,74.1,58.0,29.79,SW,229,4.0,4.0,58,0.00,,,0.00,weatherlink.com 1.10,2013-06-03 20:26:00,
2013-06-03 17:11:00,70.1,59.0,29.79,ENE,69,0.0,19.0,69,0.00,,,0.00,weatherlink.com 1.10,2013-06-03 21:11:00,
2013-06-03 17:26:00,68.5,58.0,29.79,NNW,334,0.0,10.0,70,0.00,,,0.00,weatherlink.com 1.10,2013-06-03 21:26:00,
2013-06-03 17:56:00,67.4,59.0,29.80,ESE,120,4.0,15.0,74,0.00,,,0.00,weatherlink.com 1.10,2013-06-03 21:56:00,
2013-06-03 18:11:00,67.3,59.0,29.81,NNW,340,3.0,12.0,74,0.00,,,0.00,weatherlink.com 1.10,2013-06-03 22:11:00,
2013-06-03 18:26:00,67.2,59.0,29.81,NE,38,8.0,8.0,75,0.00,,,0.00,weatherlink.com 1.10,2013-06-03 22:26:00,
2013-06-03 18:41:00,67.0,58.0,29.82,ENE,78,0.0,7.0,74,0.00,,,0.00,weatherlink.com 1.10,2013-06-03 22:41:00,
2013-06-03 18:56:00,66.9,57.0,29.82,SSE,153,2.0,5.0,71,0.00,,,0.00,weatherlink.com 1.10,2013-06-03 22:56:00,
2013-06-03 19:11:00,67.0,57.0,29.83,West,276,1.0,3.0,71,0.00,,,0.00,weatherlink.com 1.10,2013-06-03 23:11:00,
2013-06-03 19:26:00,67.0,57.0,29.82,ESE,121,0.0,3.0,70,0.00,,,0.00,weatherlink.com 1.10,2013-06-03 23:26:00,
2013-06-03 19:41:00,66.7,57.0,29.83,ENE,75,0.0,6.0,72,0.00,,,0.00,weatherlink.com 1.10,2013-06-03 23:41:00,
2013-06-03 19:56:00,66.5,57.0,29.84,NNE,26,2.0,3.0,72,0.00,,,0.00,weatherlink.com 1.10,2013-06-03 23:56:00,
2013-06-03 20:26:00,66.0,57.0,29.84,NE,54,3.0,4.0,72,0.00,,,0.00,weatherlink.com 1.10,2013-06-04 00:26:00,
2013-06-03 20:41:00,65.8,57.0,29.85,East,84,0.0,0.0,73,0.00,,,0.00,weatherlink.com 1.10,2013-06-04 00:41:00,
2013-06-03 20:56:00,65.2,57.0,29.86,NE,51,0.0,4.0,74,0.00,,,0.00,weatherlink.com 1.10,2013-06-04 00:56:00,
2013-06-03 21:11:00,64.7,57.0,29.86,ESE,105,0.0,2.0,76,0.00,,,0.00,weatherlink.com 1.10,2013-06-04 01:11:00,
2013-06-03 21:26:00,63.8,57.0,29.86,NE,42,1.0,3.0,79,0.00,,,0.00,weatherlink.com 1.10,2013-06-04 01:26:00,
2013-06-03 21:41:00,64.0,58.0,29.87,SE,133,0.0,2.0,80,0.00,,,0.00,weatherlink.com 1.10,2013-06-04 01:41:00,
2013-06-03 21:56:00,64.1,57.0,29.88,NE,49,3.0,5.0,79,0.00,,,0.00,weatherlink.com 1.10,2013-06-04 01:56:00,
2013-06-03 22:11:00,64.7,57.0,29.89,South,182,0.0,2.0,77,0.00,,,0.00,weatherlink.com 1.10,2013-06-04 02:11:00,
2013-06-03 22:26:00,64.7,58.0,29.90,East,90,1.0,6.0,78,0.00,,,0.00,weatherlink.com 1.10,2013-06-04 02:26:00,
2013-06-03 22:56:00,63.9,57.0,29.92,ESE,104,1.0,5.0,78,0.00,,,0.00,weatherlink.com 1.10,2013-06-04 02:56:00,
2013-06-03 23:11:00,63.5,57.0,29.92,NE,42,1.0,6.0,79,0.00,,,0.00,weatherlink.com 1.10,2013-06-04 03:11:00,
2013-06-03 23:26:00,63.0,56.0,29.92,ENE,59,4.0,8.0,79,0.00,,,0.00,weatherlink.com 1.10,2013-06-04 03:26:00,
2013-06-03 23:41:00,62.3,56.0,29.92,NE,40,0.0,5.0,79,0.00,,,0.00,weatherlink.com 1.10,2013-06-04 03:41:00,
2013-06-03 23:56:00,61.5,55.0,29.92,NNW,346,2.0,5.0,79,0.00,,,0.00,weatherlink.com 1.10,2013-06-04 03:56:00,